H1 CPF 2 NER 2022 2 11 9 042 01 glonass133 H2 1403201 9133 40001 2022 2 11 0 0 0 2022 2 14 23 45 0 900 1 1 0 0 0 1 H9 10 0 59621 0.00000 0 -18798258.530 -16652720.449 -4527549.206 10 0 59621 900.00000 0 -19204827.769 -16753470.458 -1312640.291 10 0 59621 1800.00000 0 -19315273.089 -16566839.073 1927737.656 10 0 59621 2700.00000 0 -19093076.758 -16136995.869 5130716.233 10 0 59621 3600.00000 0 -18513060.977 -15515838.820 8234159.821 10 0 59621 4500.00000 0 -17562627.958 -14760636.356 11177868.142 10 0 59621 5400.00000 0 -16242486.501 -13931459.441 13904740.686 10 0 59621 6300.00000 0 -14566833.860 -13088512.016 16361880.629 10 0 59621 7200.00000 0 -12562984.502 -12289472.266 18501617.070 10 0 59621 8100.00000 0 -10270460.311 -11586956.466 20282426.174 10 0 59621 9000.00000 0 -7739579.070 -11026211.943 21669733.882 10 0 59621 9900.00000 0 -5029598.967 -10643135.956 22636585.004 10 0 59621 10800.00000 0 -2206495.011 -10462703.630 23164166.202 10 0 59621 11700.00000 0 659541.457 -10497870.991 23242172.963 10 0 59621 12600.00000 0 3496777.520 -10748999.387 22869013.512 10 0 59621 13500.00000 0 6234677.803 -11203825.865 22051845.541 10 0 59621 14400.00000 0 8806595.343 -11837981.327 20806444.608 10 0 59621 15300.00000 0 11152303.158 -12616035.457 19156906.111 10 0 59621 16200.00000 0 13220262.061 -13493025.250 17135185.819 10 0 59621 17100.00000 0 14969530.768 -14416403.622 14780486.944 10 0 59621 18000.00000 0 16371238.998 -15328326.637 12138504.870 10 0 59621 18900.00000 0 17409562.324 -16168183.336 9260543.478 10 0 59621 19800.00000 0 18082158.235 -16875261.534 6202519.733 10 0 59621 20700.00000 0 18400045.364 -17391436.753 3023875.781 10 0 59621 21600.00000 0 18386931.412 -17663770.131 -213580.167 10 0 59621 22500.00000 0 18078018.588 -17646904.641 -3446881.211 10 0 59621 23400.00000 0 17518337.588 -17305157.271 -6613133.104 10 0 59621 24300.00000 0 16760681.315 -16614217.598 -9650744.812 10 0 59621 25200.00000 0 15863226.474 -15562379.811 -12500633.447 10 0 59621 26100.00000 0 14886944.499 -14151255.109 -15107379.238 10 0 59621 27000.00000 0 13892912.074 -12395933.471 -17420307.428 10 0 59621 27900.00000 0 12939635.537 -10324587.118 -19394475.685 10 0 59621 28800.00000 0 12080502.674 -7977531.713 -20991547.598 10 0 59621 29700.00000 0 11361469.592 -5405784.097 -22180535.462 10 0 59621 30600.00000 0 10819080.180 -2669176.396 -22938398.343 10 0 59621 31500.00000 0 10478901.260 165895.060 -23250484.267 10 0 59621 32400.00000 0 10354438.817 3028992.631 -23110808.665 10 0 59621 33300.00000 0 10446580.241 5848327.577 -22522164.264 10 0 59621 34200.00000 0 10743585.355 8553506.174 -21496060.861 10 0 59621 35100.00000 0 11221625.901 11078218.367 -20052496.576 10 0 59621 36000.00000 0 11845850.204 13362758.074 -18219565.283 10 0 59621 36900.00000 0 12571927.720 15356271.253 -16032907.974 10 0 59621 37800.00000 0 13348008.112 17018639.340 -13535018.684 10 0 59621 38700.00000 0 14117012.130 18321920.833 -10774418.332 10 0 59621 39600.00000 0 14819157.672 19251292.074 -7804712.439 10 0 59621 40500.00000 0 15394614.473 19805449.281 -4683550.897 10 0 59621 41400.00000 0 15786175.480 19996456.276 -1471509.843 10 0 59621 42300.00000 0 15941832.183 19849045.465 1769082.578 10 0 59621 43200.00000 0 15817145.223 19399402.505 4975353.816 10 0 59621 44100.00000 0 15377310.082 18693486.604 8085104.454 10 0 59621 45000.00000 0 14598830.557 17784957.756 11038011.990 10 0 59621 45900.00000 0 13470729.035 16732798.567 13776797.628 10 0 59621 46800.00000 0 11995242.038 15598730.924 16248333.659 10 0 59621 47700.00000 0 10187970.975 14444536.169 18404670.171 10 0 59621 48600.00000 0 8077480.767 13329391.293 20203961.600 10 0 59621 49500.00000 0 5704361.835 12307332.746 21611275.671 10 0 59621 50400.00000 0 3119793.348 11424954.031 22599269.401 10 0 59621 51300.00000 0 383666.143 10719433.371 23148719.565 10 0 59621 52200.00000 0 -2437658.081 10216973.846 23248897.558 10 0 59621 53100.00000 0 -5273859.478 9931721.346 22897781.475 10 0 59621 54000.00000 0 -8053341.668 9865205.653 22102101.121 10 0 59621 54900.00000 0 -10705972.084 10006328.315 20877214.681 10 0 59621 55800.00000 0 -13165768.062 10331898.125 19246818.761 10 0 59621 56700.00000 0 -15373417.807 10807692.141 17242496.681 10 0 59621 57600.00000 0 -17278531.831 11389998.060 14903112.830 10 0 59621 58500.00000 0 -18841531.242 12027573.424 12274064.057 10 0 59621 59400.00000 0 -20035094.254 12663939.289 9406401.904 10 0 59621 60300.00000 0 -20845100.495 13239911.600 6355842.210 10 0 59621 61200.00000 0 -21271033.552 13696263.081 3181681.229 10 0 59621 62100.00000 0 -21325825.069 13976402.548 -54360.569 10 0 59621 63000.00000 0 -21035147.224 14028957.492 -3289344.107 10 0 59621 63900.00000 0 -20436183.835 13810149.644 -6460342.487 10 0 59621 64800.00000 0 -19575932.556 13285861.830 -9505672.188 10 0 59621 65700.00000 0 -18509110.548 12433307.483 -12366099.843 10 0 59621 66600.00000 0 -17295752.847 11242231.120 -14986000.188 10 0 59621 67500.00000 0 -15998605.616 9715587.958 -17314442.029 10 0 59621 68400.00000 0 -14680424.929 7869673.072 -19306180.710 10 0 59621 69300.00000 0 -13401295.524 5733693.805 -20922537.566 10 0 59621 70200.00000 0 -12216082.724 3348802.672 -22132149.445 10 0 59621 71100.00000 0 -11172124.740 766630.578 -22911574.123 10 0 59621 72000.00000 0 -10307262.095 -1952618.791 -23245740.353 10 0 59621 72900.00000 0 -9648286.391 -4742434.429 -23128234.466 10 0 59621 73800.00000 0 -9209872.737 -7532529.522 -22561418.607 10 0 59621 74700.00000 0 -8994039.759 -10251534.068 -21556378.847 10 0 59621 75600.00000 0 -8990158.801 -12829737.362 -20132704.634 10 0 59621 76500.00000 0 -9175510.966 -15201766.997 -18318104.111 10 0 59621 77400.00000 0 -9516367.652 -17309093.733 -16147862.932 10 0 59621 78300.00000 0 -9969548.351 -19102258.910 -13664157.042 10 0 59621 79200.00000 0 -10484389.515 -20542732.629 -10915232.661 10 0 59621 80100.00000 0 -11005041.086 -21604326.182 -7954469.315 10 0 59621 81000.00000 0 -11472993.514 -22274100.846 -4839343.950 10 0 59621 81900.00000 0 -11829728.414 -22552736.129 -1630316.137 10 0 59621 82800.00000 0 -12019380.861 -22454343.019 1610343.944 10 0 59621 83700.00000 0 -11991300.709 -22005731.074 4819762.018 10 0 59621 84600.00000 0 -11702404.674 -21245160.905 7935677.328 10 0 59621 85500.00000 0 -11119219.640 -20220635.091 10897647.623 10 0 59622 0.00000 0 -10219530.733 -18987799.920 13648218.058 10 0 59622 900.00000 0 -8993563.616 -17607545.628 16134032.940 10 0 59622 1800.00000 0 -7444651.812 -16143407.645 18306865.353 10 0 59622 2700.00000 0 -5589358.384 -14658875.543 20124550.069 10 0 59622 3600.00000 0 -3457046.810 -13214723.868 21551798.363 10 0 59622 4500.00000 0 -1088917.161 -11866475.641 22560880.891 10 0 59622 5400.00000 0 1463453.633 -10662104.436 23132165.588 10 0 59622 6300.00000 0 4140008.255 -9640070.716 23254500.415 10 0 59622 7200.00000 0 6874464.772 -8827774.263 22925433.607 10 0 59622 8100.00000 0 9596839.431 -8240487.147 22151266.990 10 0 59622 9000.00000 0 12236132.966 -7880811.749 20946940.933 10 0 59622 9900.00000 0 14723069.737 -7738686.521 19335752.500 10 0 59622 10800.00000 0 16992776.659 -7791939.289 17348911.504 10 0 59622 11700.00000 0 18987290.934 -8007364.987 15024942.152 10 0 59622 12600.00000 0 20657792.248 -8342282.607 12408941.084 10 0 59622 13500.00000 0 21966466.343 -8746505.794 9551705.504 10 0 59622 14400.00000 0 22887921.950 -9164643.877 6508747.800 10 0 59622 15300.00000 0 23410101.533 -9538635.771 3339215.702 10 0 59622 16200.00000 0 23534647.562 -9810409.094 104739.060 10 0 59622 17100.00000 0 23276708.933 -9924551.152 -3131773.926 10 0 59622 18000.00000 0 22664195.831 -9830877.732 -6307366.823 10 0 59622 18900.00000 0 21736514.836 -9486789.788 -9360266.704 10 0 59622 19800.00000 0 20542838.081 -8859317.071 -12231092.672 10 0 59622 20700.00000 0 19139980.112 -7926761.027 -14864016.705 10 0 59622 21600.00000 0 17589972.648 -6679866.404 -17207853.662 10 0 59622 22500.00000 0 15957440.058 -5122471.011 -19217058.772 10 0 59622 23400.00000 0 14306886.591 -3271605.374 -20852613.034 10 0 59622 24300.00000 0 12700009.772 -1157037.217 -22082779.449 10 0 59622 25200.00000 0 11193152.849 1179720.872 -22883715.775 10 0 59622 26100.00000 0 9835003.017 3686899.631 -23239932.394 10 0 59622 27000.00000 0 8664631.348 6304395.614 -23144587.081 10 0 59622 27900.00000 0 7709955.733 8966048.357 -22599611.551 10 0 59622 28800.00000 0 6986690.199 11602177.827 -21615667.921 10 0 59622 29700.00000 0 6497823.403 14142277.116 -20211936.353 10 0 59622 30600.00000 0 6233646.841 16517748.981 -18415738.280 10 0 59622 31500.00000 0 6172330.392 18664572.895 -16262002.673 10 0 59622 32400.00000 0 6281019.771 20525792.334 -13792585.690 10 0 59622 33300.00000 0 6517408.755 22053719.412 -11055456.819 10 0 59622 34200.00000 0 6831719.140 23211765.645 -8103767.222 10 0 59622 35100.00000 0 7169004.302 23975823.255 -4994818.237 10 0 59622 36000.00000 0 7471678.704 24335140.094 -1788949.965 10 0 59622 36900.00000 0 7682166.193 24292652.352 1451628.457 10 0 59622 37800.00000 0 7745554.972 23864761.884 4664044.197 10 0 59622 38700.00000 0 7612146.870 23080568.197 7785978.315 10 0 59622 39600.00000 0 7239792.998 21980587.811 10756871.901 10 0 59622 40500.00000 0 6595916.908 20615015.180 13519097.447 10 0 59622 41400.00000 0 5659139.430 19041598.269 16019073.008 10 0 59622 42300.00000 0 4420436.168 17323217.930 18208297.661 10 0 59622 43200.00000 0 2883778.066 15525272.320 20044288.715 10 0 59622 44100.00000 0 1066227.050 13712975.511 21491402.901 10 0 59622 45000.00000 0 -1002518.571 11948682.879 22521526.083 10 0 59622 45900.00000 0 -3281111.477 10289354.512 23114618.550 10 0 59622 46800.00000 0 -5718035.907 8784261.991 23259105.595 10 0 59622 47700.00000 0 -8253521.323 7473033.836 22952105.886 10 0 59622 48600.00000 0 -10821811.089 6384120.678 22199493.049 10 0 59622 49500.00000 0 -13353693.261 5533743.883 21015788.873 10 0 59622 50400.00000 0 -15779189.260 4925371.304 19423889.562 10 0 59622 51300.00000 0 -18030289.520 4549741.854 17454629.588 10 0 59622 52200.00000 0 -20043622.749 4385437.694 15146190.662 10 0 59622 53100.00000 0 -21762947.690 4399979.880 12543366.520 10 0 59622 54000.00000 0 -23141363.395 4551401.191 9696697.048 10 0 59622 54900.00000 0 -24143145.326 4790229.544 6661488.031 10 0 59622 55800.00000 0 -24745130.014 5061797.893 3496735.451 10 0 59622 56700.00000 0 -24937589.832 5308782.337 263975.318 10 0 59622 57600.00000 0 -24724560.844 5473860.255 -2973918.189 10 0 59622 58500.00000 0 -24123609.769 5502374.943 -6153962.150 10 0 59622 59400.00000 0 -23165049.951 5344892.771 -9214297.152 10 0 59622 60300.00000 0 -21890639.561 4959543.368 -12095397.523 10 0 59622 61200.00000 0 -20351817.325 4314042.577 -14741235.059 10 0 59622 62100.00000 0 -18607550.586 3387311.474 -17100372.971 10 0 59622 63000.00000 0 -16721886.773 2170621.950 -19126968.351 10 0 59622 63900.00000 0 -14761311.785 668219.631 -20781663.428 10 0 59622 64800.00000 0 -12792026.507 -1102602.990 -22032348.460 10 0 59622 65700.00000 0 -10877255.800 -3111987.053 -22854781.792 10 0 59622 66600.00000 0 -9074702.570 -5318521.943 -23233055.543 10 0 59622 67500.00000 0 -7434252.974 -7670752.189 -23159898.536 10 0 59622 68400.00000 0 -5996027.937 -10109114.279 -22636811.217 10 0 59622 69300.00000 0 -4788861.419 -12568223.038 -21674030.493 10 0 59622 70200.00000 0 -3829267.778 -14979412.824 -20290325.635 10 0 59622 71100.00000 0 -3120939.937 -17273428.183 -18512629.465 10 0 59622 72000.00000 0 -2654797.970 -19383152.354 -16375512.144 10 0 59622 72900.00000 0 -2409584.513 -21246260.462 -13920507.761 10 0 59622 73800.00000 0 -2352980.683 -22807687.373 -11195306.689 10 0 59622 74700.00000 0 -2443194.361 -24021807.694 -8252829.322 10 0 59622 75600.00000 0 -2630952.987 -24854237.498 -5150199.007 10 0 59622 76500.00000 0 -2861816.007 -25283182.990 -1947634.039 10 0 59622 77400.00000 0 -3078708.850 -25300280.206 1292719.759 10 0 59622 78300.00000 0 -3224570.916 -24910891.134 4507993.217 10 0 59622 79200.00000 0 -3245005.421 -24133844.295 7635811.398 10 0 59622 80100.00000 0 -3090818.866 -23000631.046 10615500.856 10 0 59622 81000.00000 0 -2720342.616 -21554091.560 13389263.292 10 0 59622 81900.00000 0 -2101438.263 -19846645.649 15903293.008 10 0 59622 82800.00000 0 -1213101.768 -17938142.483 18108816.708 10 0 59622 83700.00000 0 -46598.171 -15893418.963 19963035.941 10 0 59622 84600.00000 0 1393921.755 -13779668.409 21429954.359 10 0 59622 85500.00000 0 3091349.886 -11663728.996 22481074.202 10 0 59623 0.00000 0 5016098.391 -9609404.624 23095948.914 10 0 59623 900.00000 0 7127109.277 -7674928.159 23262581.729 10 0 59623 1800.00000 0 9373352.658 -5910674.903 22977661.824 10 0 59623 2700.00000 0 11695756.353 -4357217.245 22246634.451 10 0 59623 3600.00000 0 14029485.375 -3043803.793 21083602.337 10 0 59623 4500.00000 0 16306478.603 -1987324.865 19511060.073 10 0 59623 5400.00000 0 18458137.787 -1191807.302 17559465.757 10 0 59623 6300.00000 0 20418057.494 -648459.350 15266657.325 10 0 59623 7200.00000 0 22124682.300 -336263.432 12677124.061 10 0 59623 8100.00000 0 23523780.212 -223091.529 9841146.708 10 0 59623 9000.00000 0 24570628.546 -267295.775 6813822.343 10 0 59623 9900.00000 0 25231820.149 -419706.735 3653992.822 10 0 59623 10800.00000 0 25486613.580 -625954.241 423097.701 10 0 59623 11700.00000 0 25327770.008 -829011.831 -2816025.667 10 0 59623 12600.00000 0 24761841.118 -971856.124 -6000370.766 10 0 59623 13500.00000 0 23808895.651 -1000127.400 -9067994.591 10 0 59623 14400.00000 0 22501695.992 -864677.512 -11959229.489 10 0 59623 15300.00000 0 20884359.591 -523896.099 -14617849.680 10 0 59623 16200.00000 0 19010561.820 54284.476 -16992169.109 10 0 59623 17100.00000 0 16941356.160 890791.279 -19036048.857 10 0 59623 18000.00000 0 14742703.677 1994288.386 -20709794.250 10 0 59623 18900.00000 0 12482815.689 3360578.041 -21980924.412 10 0 59623 19800.00000 0 10229421.043 4972551.315 -22824799.622 10 0 59623 20700.00000 0 8047072.277 6800690.894 -23225094.799 10 0 59623 21600.00000 0 5994602.799 8804105.534 -23174110.569 10 0 59623 22500.00000 0 4122840.579 10932053.362 -22672916.516 10 0 59623 23400.00000 0 2472672.819 13125890.812 -21731324.370 10 0 59623 24300.00000 0 1073541.089 15321366.263 -20367692.152 10 0 59623 25200.00000 0 -57571.687 17451163.126 -18608563.308 10 0 59623 26100.00000 0 -916621.634 19447586.643 -16488148.024 10 0 59623 27000.00000 0 -1512433.237 21245282.707 -14047656.764 10 0 59623 27900.00000 0 -1866082.172 22783875.627 -11334498.876 10 0 59623 28800.00000 0 -2009758.967 24010414.970 -8401361.724 10 0 59623 29700.00000 0 -1985162.610 24881529.592 -5305188.124 10 0 59623 30600.00000 0 -1841492.851 25365199.073 -2106071.765 10 0 59623 31500.00000 0 -1633126.661 25442068.692 1133907.821 10 0 59623 32400.00000 0 -1417077.624 25106253.171 4351888.210 10 0 59623 33300.00000 0 -1250345.998 24365595.718 7485441.582 10 0 59623 34200.00000 0 -1187271.726 23241371.708 10473783.046 10 0 59623 35100.00000 0 -1277002.449 21767449.477 13258946.483 10 0 59623 36000.00000 0 -1561183.694 19988943.324 15786905.269 10 0 59623 36900.00000 0 -2071968.944 17960414.915 18008616.368 10 0 59623 37800.00000 0 -2830433.891 15743697.957 19880967.966 10 0 59623 38700.00000 0 -3845462.286 13405436.447 21367612.771 10 0 59623 39600.00000 0 -5113150.981 11014438.662 22439671.220 10 0 59623 40500.00000 0 -6616760.314 8638956.409 23076291.461 10 0 59623 41400.00000 0 -8327213.207 6344002.037 23265055.502 10 0 59623 42300.00000 0 -10204123.575 4188814.176 23002223.770 10 0 59623 43200.00000 0 -12197312.627 2224576.839 22292813.207 10 0 59623 44100.00000 0 -14248751.278 492486.141 21150506.982 10 0 59623 45000.00000 0 -16294848.911 -977755.424 19597396.987 10 0 59623 45900.00000 0 -18268994.105 -2168954.939 17663563.299 10 0 59623 46800.00000 0 -20104242.023 -3076913.304 15386497.888 10 0 59623 47700.00000 0 -21736036.533 -3710357.943 12810382.934 10 0 59623 48600.00000 0 -23104853.266 -4090327.262 9985237.026 10 0 59623 49500.00000 0 -24158652.624 -4249033.258 6965945.248 10 0 59623 50400.00000 0 -24855039.280 -4228250.729 3811191.895 10 0 59623 51300.00000 0 -25163036.789 -4077301.764 582316.569 10 0 59623 52200.00000 0 -25064401.924 -3850721.527 -2657883.679 10 0 59623 53100.00000 0 -24554422.702 -3605705.019 -5846382.144 10 0 59623 54000.00000 0 -23642165.879 -3399444.004 -8921155.509 10 0 59623 54900.00000 0 -22350163.078 -3286468.010 -11822397.260 10 0 59623 55800.00000 0 -20713548.532 -3316103.114 -14493686.945 10 0 59623 56700.00000 0 -18778684.702 -3530157.188 -16883091.867 10 0 59623 57600.00000 0 -16601333.586 -3960930.438 -18944179.344 10 0 59623 58500.00000 0 -14244450.746 -4629636.150 -20636919.596 10 0 59623 59400.00000 0 -11775694.633 -5545298.953 -21928461.862 10 0 59623 60300.00000 0 -9264755.515 -6704177.624 -22793769.006 10 0 59623 61200.00000 0 -6780615.594 -8089737.139 -23216098.785 10 0 59623 62100.00000 0 -4388854.325 -9673171.588 -23187323.071 10 0 59623 63000.00000 0 -2149110.659 -11414456.417 -22708079.477 10 0 59623 63900.00000 0 -112807.188 -13263886.212 -21787752.980 10 0 59623 64800.00000 0 1678770.179 -15164034.076 -20444288.376 10 0 59623 65700.00000 0 3195958.337 -17052050.981 -18703837.454 10 0 59623 66600.00000 0 4421708.404 -18862209.281 -16600247.909 10 0 59623 67500.00000 0 5352042.738 -20528584.368 -14174403.909 10 0 59623 68400.00000 0 5995960.095 -21987762.634 -11473431.003 10 0 59623 69300.00000 0 6374794.517 -23181462.667 -8549780.734 10 0 59623 70200.00000 0 6521056.372 -24058960.170 -5460212.597 10 0 59623 71100.00000 0 6476805.613 -24579215.243 -2264692.968 10 0 59623 72000.00000 0 6291626.825 -24712612.961 974767.528 10 0 59623 72900.00000 0 6020292.335 -24442244.388 4195315.703 10 0 59623 73800.00000 0 5720212.625 -23764674.333 7334473.194 10 0 59623 74700.00000 0 5448782.144 -22690163.623 10331345.847 10 0 59623 75600.00000 0 5260732.886 -21242336.444 13127801.721 10 0 59623 76500.00000 0 5205607.654 -19457306.445 15669595.068 10 0 59623 77400.00000 0 5325459.773 -17382297.805 17907414.671 10 0 59623 78300.00000 0 5652876.463 -15073818.414 19797836.656 10 0 59623 79200.00000 0 6209409.448 -12595460.736 21304163.777 10 0 59623 80100.00000 0 7004479.331 -10015421.359 22397135.350 10 0 59623 81000.00000 0 8034800.526 -7403841.636 23055494.510 10 0 59623 81900.00000 0 9284351.882 -4830079.131 23266402.144 10 0 59623 82800.00000 0 10724895.397 -2360022.491 23025689.518 10 0 59623 83700.00000 0 12317022.672 -53560.418 22337944.630 10 0 59623 84600.00000 0 14011686.715 2037690.845 21216430.199 10 0 59623 85500.00000 0 15752156.348 3872307.639 19682834.293 10 0 59624 0.00000 0 17476312.478 5420547.201 17766857.824 10 0 59624 900.00000 0 19119191.987 6665343.435 15505644.941 10 0 59624 1800.00000 0 20615670.958 7602766.962 12943069.193 10 0 59624 2700.00000 0 21903178.047 8241933.493 10128885.140 10 0 59624 3600.00000 0 22924321.674 8604362.715 7117763.833 10 0 59624 4500.00000 0 23629321.104 8722816.137 3968229.780 10 0 59624 5400.00000 0 23978138.283 8639663.394 741520.262 10 0 59624 6300.00000 0 23942219.847 8404846.820 -2499610.458 10 0 59624 7200.00000 0 23505774.996 8073531.205 -5692118.018 10 0 59624 8100.00000 0 22666534.534 7703539.265 -8773901.290 10 0 59624 9000.00000 0 21435958.368 7352682.429 -11685017.305 10 0 59624 9900.00000 0 19838882.176 7076101.048 -14368853.177 10 0 59624 10800.00000 0 17912617.751 6923727.622 -16773231.597 10 0 59624 11700.00000 0 15705544.620 6937981.247 -18851427.937 10 0 59624 12600.00000 0 13275252.006 7151791.452 -20563078.908 10 0 59624 13500.00000 0 10686308.962 7587035.428 -21874965.268 10 0 59624 14400.00000 0 8007755.881 8253454.960 -22761653.679 10 0 59624 15300.00000 0 5310422.100 9148098.928 -23205985.735 10 0 59624 16200.00000 0 2664181.126 10255315.024 -23199405.315 10 0 59624 17100.00000 0 135257.302 11547291.185 -22742118.531 10 0 59624 18000.00000 0 -2216304.639 12985124.129 -21843083.735 10 0 59624 18900.00000 0 -4338902.849 14520370.356 -20519832.235 10 0 59624 19800.00000 0 -6191281.531 16097014.801 -18798123.497 10 0 59624 20700.00000 0 -7743996.055 17653774.813 -16711441.653 10 0 59624 21600.00000 0 -8980380.555 19126643.188 -14300343.122 10 0 59624 22500.00000 0 -9896979.242 20451563.858 -11611667.866 10 0 59624 23400.00000 0 -10503425.005 21567128.250 -8697629.528 10 0 59624 24300.00000 0 -10821771.975 22417179.356 -5614801.963 10 0 59624 25200.00000 0 -10885311.551 22953214.355 -2423021.731 10 0 59624 26100.00000 0 -10736922.888 23136484.936 815772.095 10 0 59624 27000.00000 0 -10427028.369 22939707.102 4038738.304 10 0 59624 27900.00000 0 -10011241.073 22348308.563 7183350.790 10 0 59624 28800.00000 0 -9547803.993 21361161.158 10188608.946 10 0 59624 29700.00000 0 -9094929.496 19990767.277 12996217.805 10 0 59624 30600.00000 0 -8708151.421 18262892.043 15551715.227 10 0 59624 31500.00000 0 -8437801.628 16215656.136 17805524.436 10 0 59624 32400.00000 0 -8326717.397 13898126.477 19713911.972 10 0 59624 33300.00000 0 -8408276.336 11368462.782 21239832.924 10 0 59624 34200.00000 0 -8704841.652 8691696.365 22353647.511 10 0 59624 35100.00000 0 -9226683.545 5937232.638 23033695.589 10 0 59624 36000.00000 0 -9971422.583 3176180.075 23266718.276 10 0 59624 36900.00000 0 -10924019.229 478615.658 23048118.601 10 0 59624 37800.00000 0 -12057310.956 -2089100.646 22382056.041 10 0 59624 38700.00000 0 -13333075.587 -4466851.786 21281372.752 10 0 59624 39600.00000 0 -14703577.456 -6603025.624 19767352.291 10 0 59624 40500.00000 0 -16113532.686 -8456419.671 17869314.785 10 0 59624 41400.00000 0 -17502412.143 -9997709.806 15624055.455 10 0 59624 42300.00000 0 -18806986.059 -11210422.068 13075136.615 10 0 59624 43200.00000 0 -19964003.810 -12091367.430 10272046.092 10 0 59624 44100.00000 0 -20912896.174 -12650521.753 7269237.864 10 0 59624 45000.00000 0 -21598385.968 -12910356.455 4125073.382 10 0 59624 45900.00000 0 -21972896.416 -12904648.713 900684.172 10 0 59624 46800.00000 0 -21998654.874 -12676822.080 -2341221.797 10 0 59624 47700.00000 0 -21649402.144 -12277888.449 -5537586.027 10 0 59624 48600.00000 0 -20911634.264 -11764079.331 -8626233.078 10 0 59624 49500.00000 0 -19785323.424 -11194267.686 -11547086.924 10 0 59624 50400.00000 0 -18284086.808 -10627290.420 -14243345.498 10 0 59624 51300.00000 0 -16434795.597 -10119285.798 -16662589.899 10 0 59624 52200.00000 0 -14276640.037 -9721159.231 -18757806.236 10 0 59624 53100.00000 0 -11859689.552 -9476285.157 -20488299.963 10 0 59624 54000.00000 0 -9243007.970 -9418542.511 -21820485.066 10 0 59624 54900.00000 0 -6492402.478 -9570766.896 -22728533.089 10 0 59624 55800.00000 0 -3677900.136 -9943684.689 -23194869.902 10 0 59624 56700.00000 0 -871056.803 -10535373.934 -23210511.167 10 0 59624 57600.00000 0 1857789.963 -11331274.494 -22775230.667 10 0 59624 58500.00000 0 4442210.324 -12304746.909 -21897558.756 10 0 59624 59400.00000 0 6822202.955 -13418156.327 -20594611.434 10 0 59624 60300.00000 0 8946443.445 -14624435.937 -18891753.634 10 0 59624 61200.00000 0 10774167.930 -15869064.234 -16822103.409 10 0 59624 62100.00000 0 12276614.924 -17092373.143 -14425886.655 10 0 59624 63000.00000 0 13437966.741 -18232090.171 -11749654.766 10 0 59624 63900.00000 0 14255752.667 -19226007.847 -8845380.342 10 0 59624 64800.00000 0 14740698.587 -20014668.366 -5769448.362 10 0 59624 65700.00000 0 14916030.838 -20543950.577 -2581562.290 10 0 59624 66600.00000 0 14816264.821 -20767450.535 656413.587 10 0 59624 67500.00000 0 14485530.463 -20648555.368 3881653.163 10 0 59624 68400.00000 0 13975505.957 -20162123.072 7031585.515 10 0 59624 69300.00000 0 13343047.534 -19295697.352 10045106.251 10 0 59624 70200.00000 0 12647615.607 -18050206.049 12863759.720 10 0 59624 71100.00000 0 11948606.073 -16440113.298 15432869.368 10 0 59624 72000.00000 0 11302699.273 -14493018.362 17702594.467 10 0 59624 72900.00000 0 10761338.252 -12248717.091 19628893.169 10 0 59624 73800.00000 0 10368442.373 -9757764.173 21174373.687 10 0 59624 74700.00000 0 10158452.383 -7079595.131 22309017.534 10 0 59624 75600.00000 0 10154789.099 -4280285.026 23010761.276 10 0 59624 76500.00000 0 10368790.655 -1430035.831 23265925.873 10 0 59624 77400.00000 0 10799173.285 1399504.245 23069485.371 10 0 59624 78300.00000 0 11432038.824 4137979.371 22425169.676 10 0 59624 79200.00000 0 12241429.413 6719009.998 21345399.038 10 0 59624 80100.00000 0 13190406.956 9082711.349 19851050.937 10 0 59624 81000.00000 0 14232612.957 11177942.609 17971063.127 10 0 59624 81900.00000 0 15314244.042 12964193.740 15741879.631 10 0 59624 82800.00000 0 16376360.797 14413031.662 13206749.607 10 0 59624 83700.00000 0 17357433.172 15509045.750 10414891.951 10 0 59624 84600.00000 0 18196015.370 16250253.471 7420541.265 10 0 59624 85500.00000 0 18833437.181 16647949.410 4281893.539 99